TimeEST,TemperatureF,Dew PointF,Humidity,Sea Level PressureIn,VisibilityMPH,Wind Direction,Wind SpeedMPH,Gust SpeedMPH,PrecipitationIn,Events,Conditions,WindDirDegrees,DateUTC
12:53 AM,41.0,28.0,60,30.37,10.0,North,8.1,-,N/A,,Clear,10,2012-11-14 05:53:00
1:53 AM,41.0,28.0,60,30.37,10.0,NNE,5.8,-,N/A,,Clear,20,2012-11-14 06:53:00
2:53 AM,41.0,28.0,60,30.37,10.0,NNE,8.1,-,N/A,,Partly Cloudy,20,2012-11-14 07:53:00
3:53 AM,39.9,28.0,63,30.37,10.0,NNE,6.9,-,N/A,,Partly Cloudy,20,2012-11-14 08:53:00
4:53 AM,39.0,28.9,67,30.38,10.0,NNE,5.8,-,N/A,,Partly Cloudy,20,2012-11-14 09:53:00
5:53 AM,39.0,28.9,67,30.38,10.0,NE,3.5,-,N/A,,Scattered Clouds,40,2012-11-14 10:53:00
6:53 AM,37.9,28.9,70,30.40,10.0,NNE,5.8,-,N/A,,Mostly Cloudy,30,2012-11-14 11:53:00
7:53 AM,39.0,28.9,67,30.41,10.0,NE,3.5,-,N/A,,Mostly Cloudy,40,2012-11-14 12:53:00
8:53 AM,41.0,28.9,62,30.44,10.0,NE,5.8,-,N/A,,Mostly Cloudy,40,2012-11-14 13:53:00
9:53 AM,44.1,30.0,58,30.43,10.0,North,5.8,-,N/A,,Mostly Cloudy,10,2012-11-14 14:53:00
10:53 AM,46.0,30.0,54,30.41,10.0,NNE,5.8,-,N/A,,Mostly Cloudy,20,2012-11-14 15:53:00
11:53 AM,48.0,32.0,54,30.39,10.0,Variable,5.8,-,N/A,,Mostly Cloudy,0,2012-11-14 16:53:00
12:53 PM,51.1,32.0,48,30.35,10.0,North,9.2,-,N/A,,Mostly Cloudy,10,2012-11-14 17:53:00
1:53 PM,51.1,33.1,50,30.34,10.0,Calm,Calm,-,N/A,,Mostly Cloudy,0,2012-11-14 18:53:00
2:53 PM,53.1,34.0,48,30.31,10.0,North,3.5,-,N/A,,Mostly Cloudy,350,2012-11-14 19:53:00
3:53 PM,53.1,34.0,48,30.31,10.0,North,3.5,-,N/A,,Mostly Cloudy,10,2012-11-14 20:53:00
4:53 PM,52.0,34.0,50,30.30,10.0,Calm,Calm,-,N/A,,Mostly Cloudy,0,2012-11-14 21:53:00
5:53 PM,50.0,37.0,61,30.31,10.0,NW,4.6,-,N/A,,Mostly Cloudy,310,2012-11-14 22:53:00
6:53 PM,51.1,35.1,54,30.31,10.0,North,4.6,-,N/A,,Overcast,10,2012-11-14 23:53:00
7:53 PM,50.0,36.0,59,30.30,10.0,NNE,4.6,-,N/A,,Overcast,20,2012-11-15 00:53:00
8:53 PM,48.0,37.0,66,30.32,10.0,Calm,Calm,-,N/A,,Mostly Cloudy,0,2012-11-15 01:53:00
9:53 PM,48.0,37.0,66,30.32,10.0,Calm,Calm,-,N/A,,Mostly Cloudy,0,2012-11-15 02:53:00
10:53 PM,43.0,37.9,82,30.30,10.0,Calm,Calm,-,N/A,,Scattered Clouds,0,2012-11-15 03:53:00
11:53 PM,41.0,37.0,86,30.30,10.0,Calm,Calm,-,N/A,,Scattered Clouds,0,2012-11-15 04:53:00